2018-004AB (43136 NORAD) Tracking and Keplerian Element Data

This shows tracking and keplerian element data for the satellite.

Feedback or suggestion? Click here.




ElementValue
Catalog43136
Name2018-004AB
Epoch Orbit20496
Epoch Day261.64314406
Epoch Year2021
RAAN336.5803
Inclination97.4064
Eccentricity0.0007207
Argument of Perigee230.0041
Mean Anonmoly130.0566
Mean Motion15.27472207
Decay Rate3.47E-05
L11 43136U 18004AB 21261.64314406 .00003470 00000-0 13179-3 0 9998
L22 43136 97.4064 336.5803 0007207 230.0041 130.0566 15.27472207204962

Live tracking and technical data element details for 2018-004AB (NORAD 43136). 2018-004AB can be tracked NOW for your location showing map with azimuth and elevation plus other details from your city location.

Track the satellite on the map from your city or location and see movement details for azimuth, elevation, latitude, longitude, range, height, and movement on the map or in text.







IsCatalogInMostPopularTable: catalog: 43136, numindb: 601
Update: records affected: 1



GetName: 43136 2018-004AB

Hit Count: updated at: Sun, 26 Sep 2021 00:06:02 GMT